Regional Weather Roundup
Issued by NWS Bismarck, ND

Home | Current Version | Previous Version | Text Only | Print | Product List | Glossary On
Versions: 1 2 3 4 5 6 7 8 9 10 11 12 13 14 15 16 17 18 19 20 21 22 23 24 25 26 27 28 29 30 31 32 33 34 35 36 37 38 39 40 41 42 43 44 45 46 47 48 49 50
000
ASUS43 KBIS 251410
RWRBIS

NWR BROADCAST TEXT
NATIONAL WEATHER SERVICE BISMARCK ND
900 AM CDT SAT MAR 25 2017

NOTE: "FAIR" INDICATES FEW OR NO CLOUDS BELOW 12,000 FEET WITH NO
SIGNIFICANT WEATHER AND/OR OBSTRUCTIONS TO VISIBILITY.


CITY           SKY/WX    TMP DP  RH WIND       PRES   REMARKS
WILLISTON      FAIR      42  33  70 S8        29.85R
MINOT          FAIR      33  30  88 SE10      29.94F
MINOT AFB      FAIR      31  30  94 SE13      29.93F
BISMARCK       CLOUDY    31  31 100 SE17      30.04S FOG     WCI  19
DICKINSON      FAIR      35  30  82 S12       29.89R
GARRISON         N/A     31  30  96 SE14      29.96S
HETTINGER ARPT FAIR      34  30  85 SE10      29.94S
JAMESTOWN      CLOUDY    30  29  96 S13       30.10S FOG     WCI  20
HAZEN          FAIR      34  30  86 SE7       29.99S
LINTON         FOG       30  30 100 SE16G23   30.08F VSB 1/2 WCI  19
MANDAN         FOG       30  30 100 SE21      30.02R VSB<1/4 WCI  17
RUGBY            N/A     28  28 100 SE14      30.01F WCI  17
STANLEY        FAIR      34  34 100 S13G20    29.91F
TIOGA          FAIR      34  34 100 S14G21    29.87S
WATFORD CITY   FAIR      41  32  70 S9        29.86S
$$

CITY           SKY/WX    TMP DP  RH WIND       PRES   REMARKS
GRAND FORKS    PTSUNNY   34  32  92 SE14      30.16S
GRAND FORKS AF FAIR      32  32  99 S13       30.15S
DEVILS LAKE    FAIR      29  27  92 SE14      30.07F WCI  18
FARGO          FAIR      35  31  85 SE12      30.18R
CAVALIER         N/A     30  28  93 S13       30.12F
GRAFTON        FAIR      32  32 100 S13       30.17R
GWINNER        CLOUDY    32  32 100 MISG      30.15S
LANGDON        FAIR      30  30 100 S16       30.07S WCI  19
ROLLA          CLOUDY    27  27 100 S13G18    30.01F FOG     WCI  16
$$

CITY           SKY/WX    TMP DP  RH WIND       PRES   REMARKS
ABERDEEN       CLOUDY    32  28  85 SE12      30.14S
MOBRIDGE       CLOUDY    33  30  88 SE16      30.04R FOG
BUFFALO          N/A     37  31  78 S6        29.84S
RAPID CITY     FAIR      41  31  67 SE12      29.94F
GLASGOW        FAIR      43  32  65 W9        29.85S
SIDNEY         FAIR      42  34  73 CALM      29.86R
WOLF POINT     FAIR      42  34  73 SW7       29.86R
GLENDIVE       FAIR      44  34  67 CALM      29.88R
MILES CITY     FAIR      44  34  67 W5        29.90R
BAKER          PTSUNNY   41  33  73 SE5       29.89R
$$

CITY           SKY/WX    TMP DP  RH WIND       PRES   REMARKS
BILLINGS       MOCLDY    46  31  55 W12       29.95R
GREAT FALLS    FAIR      40  24  53 SW16      29.94R
REGINA         PTSUNNY   37  34  87 SE8       29.73S
ESTEVAN        CLOUDY    36  32  87 SE9       29.81F
$$





USA.gov is the U.S. government's official web portal to all federal, state and local government web resources and services.